Wind_Speed
18 17 16 15 14 14 13 12 11 10 9 8 6 6 5 5 5 4 4 4 4 5 6 6 7 7 7 7 8 9 9 10 11 11 12 12 13 14 14 14 15 15 16
19 18 17 16 15 14 13 13 12 11 10 9 8 7 7 7 6 6 6 5 6 6 7 7 8 8 8 9 9 10 11 11 12 12 13 13 14 14 15 15 16 16 16
21 20 19 18 17 15 15 14 13 13 12 11 10 9 9 8 8 8 7 7 7 8 8 9 9 9 10 10 10 11 12 12 13 13 14 14 14 15 15 16 16 17 18
23 22 21 20 19 17 16 16 15 14 13 12 12 11 10 10 10 9 9 9 9 9 10 10 11 11 11 11 11 12 13 13 14 14 15 15 15 16 16 17 17 18 19
25 24 23 22 21 20 19 18 16 15 15 14 13 13 12 12 12 11 11 11 11 11 11 12 12 12 12 12 12 13 14 15 15 16 16 16 16 17 18 18 19 19 20
27 27 26 25 24 23 22 20 19 18 17 16 15 15 14 14 13 13 13 13 13 13 13 12 13 13 13 13 14 15 15 16 16 17 17 17 18 18 19 19 20 20 21
29 29 28 27 27 26 25 23 22 21 19 18 17 17 16 16 15 15 15 15 14 14 14 14 14 14 15 15 16 16 17 18 18 18 18 19 19 20 20 21 21 22 22
31 31 30 30 29 28 27 26 25 23 22 20 19 19 18 18 17 17 17 16 16 16 16 16 16 16 16 17 17 18 18 18 19 19 20 20 21 21 22 22 22 23 23
33 33 32 31 31 30 29 28 27 26 24 23 22 21 20 19 19 19 18 18 18 18 18 18 18 18 18 19 19 19 20 20 20 21 21 22 22 23 23 23 24 24 25
34 34 34 33 32 32 31 30 29 28 27 25 24 23 22 22 21 20 20 20 19 19 19 19 19 20 20 20 21 21 21 21 22 22 23 23 24 24 25 25 25 26 26
36 35 35 35 34 34 32 31 30 29 28 27 26 25 24 24 23 22 22 21 21 21 21 21 21 21 21 22 22 22 23 23 24 24 24 25 25 26 26 27 27 27 27
37 37 37 36 36 35 35 33 32 31 30 29 28 27 26 25 25 24 23 23 23 22 22 22 22 23 23 23 24 24 24 24 25 25 25 26 26 27 27 28 28 28 28
39 38 38 37 37 36 36 35 33 32 32 31 30 29 28 27 27 26 25 24 25 24 24 24 24 24 24 25 25 25 25 26 26 26 26 27 27 28 29 29 30 30 30
40 39 39 38 38 38 37 36 35 34 33 32 31 31 30 29 28 28 27 26 26 26 26 25 26 26 26 26 26 26 26 27 27 27 28 28 29 30 30 30 31 31 31
40 40 39 39 39 39 38 37 37 36 35 34 33 32 31 30 30 29 29 28 27 28 27 27 27 27 27 27 28 28 28 28 28 28 29 29 30 30 31 31 31 32 32
41 41 40 39 39 39 39 39 38 37 36 35 35 34 33 32 31 31 30 30 29 29 29 29 29 29 29 29 29 30 30 30 30 30 30 30 31 31 31 31 32 32 33
42 42 42 41 40 40 40 39 39 38 37 36 36 36 35 33 32 32 31 31 31 31 31 30 30 30 30 30 31 31 31 31 31 31 31 31 31 31 32 32 32 33 33
42 42 43 43 42 41 40 40 40 40 39 38 37 37 36 35 34 33 33 33 32 32 32 31 31 31 31 31 32 32 32 32 32 32 32 32 32 32 32 33 33 33 34
42 42 42 42 42 41 41 40 40 40 40 39 38 38 37 36 35 35 34 34 33 33 33 32 32 32 32 32 33 33 33 33 33 32 32 32 32 33 33 33 34 34 35
42 42 42 42 43 43 42 41 41 41 41 41 40 39 38 37 36 36 35 34 34 33 33 33 33 33 34 34 33 34 33 33 33 33 33 33 34 34 34 35 35 36 36
42 41 41 42 42 42 43 42 42 41 41 41 41 40 39 39 38 37 37 36 36 35 35 34 35 34 35 35 35 35 34 34 34 34 34 34 34 35 35 36 36 37 38
43 43 41 42 42 42 42 42 42 42 42 43 43 42 40 40 40 39 38 37 37 37 36 36 36 36 36 36 36 35 35 35 35 34 34 34 35 35 36 36 37 38 38
42 42 42 41 41 42 42 42 41 41 43 43 42 41 40 40 40 39 38 38 38 38 37 36 36 37 37 37 37 36 36 35 35 34 34 35 36 36 36 37 37 38 39
42 42 42 41 41 42 42 43 43 41 42 42 41 40 40 40 40 39 39 38 38 37 37 37 37 37 37 37 37 37 37 37 36 35 35 36 36 36 37 38 38 39 40
42 42 42 42 42 41 41 42 43 42 41 41 40 41 40 39 40 39 39 38 37 37 36 37 37 37 37 37 37 37 37 37 37 36 36 35 36 37 38 39 40 40 41
42 42 43 43 43 43 42 42 43 42 42 41 40 40 40 39 39 39 39 39 38 37 36 36 37 37 38 38 37 38 37 37 37 37 36 36 36 37 38 39 40 41 42
Wind_Direction
234 234 230 226 225 223 221 222 223 224 224 227 229 233 239 244 248 253 263 279 288 291 296 299 300 301 306 310 313 313 313 313 314 316 318 317 317 317 317 317 317 317 314
233 232 230 228 227 226 226 227 228 228 230 234 238 239 243 246 253 256 261 271 281 287 289 291 292 295 299 302 307 310 311 312 313 315 316 317 317 317 316 317 317 316 315
234 231 229 230 230 229 229 230 232 232 234 237 241 244 248 251 254 257 263 270 277 283 286 289 290 291 294 297 302 307 309 309 311 313 314 313 314 314 314 314 315 314 314
233 233 231 231 232 232 233 233 235 235 237 241 244 247 251 253 255 258 263 269 276 281 284 287 288 290 291 293 297 302 304 306 307 308 310 310 310 311 312 312 312 313 313
234 233 233 233 234 234 236 236 237 239 240 242 244 248 250 252 256 258 262 268 275 279 282 284 286 287 290 292 295 298 300 302 303 304 306 306 307 308 309 309 310 310 311
235 235 235 235 235 236 238 239 239 240 241 244 246 248 249 252 256 259 263 269 274 277 279 281 283 285 287 290 292 294 297 298 299 301 302 303 304 305 305 306 307 308 308
236 235 236 236 236 237 239 240 241 241 242 245 247 248 250 253 256 259 264 269 273 275 277 279 281 283 286 289 291 293 294 295 296 298 299 301 302 303 303 304 305 306 305
236 236 236 237 237 238 239 240 241 242 243 244 246 248 250 254 257 260 264 269 272 273 275 278 280 282 285 287 289 290 292 293 295 296 298 299 300 301 302 303 303 303 303
237 236 236 237 238 239 239 240 241 242 243 243 244 247 250 254 256 259 263 268 271 273 274 277 279 282 284 286 287 288 290 291 293 295 297 298 299 300 300 301 301 302 302
238 237 236 237 238 239 240 240 240 242 243 243 244 246 249 253 255 258 262 266 269 271 274 276 279 281 282 284 286 287 288 290 293 295 296 297 297 298 299 300 300 301 301
238 238 237 237 238 239 240 240 240 242 243 244 245 246 249 251 254 257 261 264 268 270 273 276 278 281 281 282 284 286 287 289 291 293 294 295 296 297 298 299 300 301 301
237 237 236 236 237 238 239 241 241 242 243 244 245 247 249 250 253 256 259 263 266 269 272 276 278 280 281 282 283 285 286 288 290 292 293 294 295 296 297 299 300 302 301
236 237 237 236 236 237 238 241 242 242 243 245 246 247 249 250 252 255 258 262 265 268 271 274 277 278 279 281 283 284 286 287 288 290 292 293 294 295 296 297 299 300 300
236 236 237 237 237 236 238 239 240 241 242 245 246 247 248 250 252 254 258 261 264 268 271 273 276 278 279 281 282 284 287 286 287 289 291 292 293 294 296 297 298 298 299
235 236 237 237 238 238 237 238 239 241 242 243 245 247 248 249 251 254 257 261 265 267 270 272 274 278 280 281 282 284 286 287 287 289 290 292 293 294 295 296 296 297 298
235 236 236 237 238 238 239 239 239 240 242 243 244 246 248 249 251 254 257 260 263 267 270 272 274 277 279 281 282 284 285 286 287 288 289 291 293 294 295 296 296 297 297
235 236 236 236 237 238 238 239 239 240 242 243 244 246 247 249 251 254 257 260 263 267 270 272 274 276 279 280 282 284 284 285 286 287 288 289 291 293 294 296 296 297 297
236 236 236 235 235 236 238 240 240 241 242 243 245 245 246 248 251 254 257 260 263 266 270 271 273 275 278 280 282 284 285 285 286 288 288 289 290 292 293 295 295 296 297
235 236 236 235 235 236 237 239 240 240 241 243 244 245 246 248 251 253 256 259 262 265 268 271 273 275 277 279 282 283 284 286 287 287 288 289 290 291 292 293 294 296 297
234 235 235 236 237 237 237 238 239 240 241 242 244 245 247 248 250 253 256 259 262 265 269 271 272 274 276 278 281 282 283 286 287 287 288 289 290 291 292 293 294 295 296
234 235 236 236 237 237 237 238 239 239 241 242 243 245 247 249 250 252 255 259 262 264 268 271 271 272 275 278 279 281 283 285 286 287 287 288 290 291 292 293 294 295 296
235 235 236 236 237 237 237 239 239 239 240 241 243 244 246 249 250 253 255 258 262 264 266 270 271 272 274 276 279 280 282 284 285 286 287 288 290 291 292 293 294 295 297
233 234 236 236 236 237 238 239 241 241 241 242 243 245 247 249 251 253 255 258 261 264 266 268 271 272 274 276 277 279 281 282 283 284 286 287 289 291 292 294 295 296 296
233 234 235 236 236 237 238 238 240 242 242 242 242 245 247 250 251 253 256 259 261 262 266 268 270 272 274 276 277 278 280 281 283 283 284 286 289 290 292 293 295 295 296
233 234 236 236 236 237 238 239 240 241 242 241 242 244 247 251 252 254 256 259 262 264 266 268 270 272 273 275 276 278 279 280 282 283 283 286 288 290 292 293 294 295 296
232 235 237 237 237 238 239 240 240 241 241 242 243 244 248 250 253 255 257 258 261 264 265 267 269 271 272 274 275 277 279 280 282 283 283 284 288 290 292 293 294 296 297
Height
5851 5853 5854 5856 5857 5859 5860 5862 5863 5865 5866 5867 5868 5869 5870 5870 5871 5872 5872 5873 5873 5874 5874 5874 5874 5874 5874 5874 5874 5874 5873 5873 5873 5872 5872 5871 5870 5869 5868 5867 5866 5865 5864
5848 5850 5852 5853 5855 5857 5859 5860 5861 5863 5864 5865 5866 5867 5868 5869 5870 5870 5871 5871 5872 5872 5873 5873 5873 5873 5873 5873 5872 5872 5872 5871 5871 5870 5870 5869 5868 5867 5866 5865 5864 5863 5862
5845 5847 5849 5851 5853 5854 5856 5858 5859 5860 5862 5863 5864 5865 5866 5867 5868 5868 5869 5870 5870 5871 5871 5871 5871 5871 5871 5871 5871 5871 5870 5870 5869 5868 5868 5867 5866 5865 5864 5863 5862 5861 5860
5841 5843 5845 5847 5849 5851 5853 5855 5856 5858 5859 5860 5862 5863 5864 5865 5866 5866 5867 5868 5868 5869 5869 5869 5869 5869 5869 5869 5869 5869 5868 5868 5867 5866 5866 5865 5864 5863 5862 5861 5860 5858 5857
5836 5838 5841 5843 5846 5848 5850 5852 5853 5855 5856 5857 5859 5860 5861 5862 5863 5864 5865 5865 5866 5866 5867 5867 5867 5867 5867 5867 5867 5866 5866 5865 5865 5864 5863 5862 5861 5860 5859 5858 5857 5856 5854
5831 5833 5836 5838 5841 5843 5846 5848 5850 5851 5853 5854 5855 5857 5858 5859 5860 5861 5862 5863 5863 5864 5864 5864 5864 5864 5864 5864 5864 5864 5863 5863 5862 5861 5860 5859 5858 5857 5856 5855 5854 5852 5851
5825 5828 5830 5833 5836 5838 5841 5843 5845 5847 5849 5850 5852 5853 5855 5856 5857 5858 5859 5860 5860 5861 5861 5861 5861 5862 5862 5862 5861 5861 5860 5859 5859 5858 5857 5856 5855 5854 5853 5851 5850 5849 5847
5819 5822 5825 5828 5830 5833 5836 5838 5840 5843 5844 5846 5848 5849 5851 5852 5853 5854 5855 5856 5857 5857 5858 5858 5858 5858 5858 5858 5858 5857 5857 5856 5855 5855 5854 5853 5852 5850 5849 5848 5846 5845 5843
5812 5815 5819 5822 5825 5827 5830 5832 5835 5837 5839 5841 5843 5845 5847 5848 5849 5850 5851 5852 5853 5853 5854 5854 5854 5855 5855 5855 5854 5854 5853 5852 5852 5851 5850 5849 5848 5846 5845 5843 5842 5840 5839
5805 5808 5812 5815 5818 5821 5824 5826 5829 5832 5834 5836 5838 5840 5842 5843 5845 5846 5847 5848 5849 5849 5850 5850 5851 5851 5851 5851 5850 5850 5849 5848 5848 5847 5846 5845 5843 5842 5841 5839 5837 5836 5834
5798 5801 5805 5808 5811 5815 5817 5820 5823 5825 5828 5830 5833 5835 5837 5839 5840 5841 5843 5844 5844 5845 5845 5846 5846 5846 5846 5846 5846 5845 5845 5844 5843 5842 5841 5840 5839 5837 5836 5834 5832 5831 5829
5791 5794 5797 5801 5804 5807 5810 5813 5816 5819 5822 5824 5827 5829 5831 5833 5835 5836 5837 5839 5840 5840 5841 5841 5841 5842 5842 5842 5841 5841 5840 5839 5838 5837 5836 5835 5834 5832 5831 5829 5827 5825 5824
5783 5786 5790 5793 5797 5800 5803 5807 5810 5813 5815 5818 5820 5823 5825 5827 5829 5831 5832 5833 5834 5835 5836 5836 5836 5837 5837 5837 5836 5836 5835 5834 5833 5832 5831 5830 5829 5827 5825 5824 5822 5820 5818
5775 5779 5783 5786 5789 5793 5796 5800 5803 5806 5809 5812 5814 5816 5819 5821 5823 5825 5827 5828 5829 5830 5831 5831 5831 5831 5831 5831 5831 5831 5830 5829 5828 5827 5826 5825 5823 5821 5820 5818 5816 5814 5812
5767 5771 5775 5778 5781 5785 5789 5792 5795 5799 5802 5805 5807 5810 5812 5814 5817 5819 5820 5822 5823 5824 5825 5825 5826 5826 5826 5826 5825 5825 5824 5823 5822 5821 5820 5819 5817 5815 5814 5812 5810 5808 5806
5758 5762 5766 5770 5774 5777 5781 5784 5788 5791 5794 5797 5800 5803 5805 5808 5810 5812 5814 5815 5816 5817 5819 5819 5820 5820 5820 5820 5819 5819 5818 5817 5816 5815 5814 5812 5811 5809 5807 5805 5803 5801 5799
5749 5753 5757 5762 5766 5770 5773 5777 5780 5783 5787 5790 5793 5795 5798 5801 5803 5805 5807 5809 5810 5811 5812 5813 5813 5813 5813 5813 5813 5812 5811 5811 5810 5808 5807 5806 5804 5803 5801 5799 5797 5795 5793
5740 5744 5748 5752 5757 5762 5765 5769 5772 5776 5779 5782 5785 5788 5791 5794 5796 5798 5800 5802 5803 5804 5805 5806 5807 5807 5807 5807 5806 5806 5805 5804 5803 5802 5800 5799 5798 5796 5794 5792 5790 5788 5786
5730 5735 5739 5744 5748 5753 5757 5761 5764 5768 5771 5774 5778 5780 5783 5786 5789 5791 5793 5795 5796 5797 5798 5799 5800 5800 5800 5800 5799 5798 5798 5797 5796 5795 5793 5792 5790 5789 5787 5785 5783 5781 5778
5722 5727 5731 5735 5740 5745 5749 5753 5756 5759 5763 5767 5770 5773 5776 5779 5781 5784 5786 5787 5789 5790 5791 5792 5793 5793 5792 5792 5792 5791 5790 5789 5788 5787 5786 5784 5783 5781 5779 5778 5775 5773 5771
5714 5719 5723 5727 5732 5736 5740 5744 5747 5751 5755 5759 5762 5765 5768 5771 5773 5776 5778 5780 5781 5783 5784 5784 5785 5785 5785 5785 5784 5784 5783 5782 5781 5780 5778 5777 5775 5774 5772 5770 5767 5765 5763
5707 5711 5715 5719 5724 5728 5732 5735 5738 5742 5746 5750 5753 5756 5759 5762 5765 5768 5770 5772 5773 5775 5775 5776 5777 5777 5777 5777 5777 5776 5776 5775 5773 5772 5771 5769 5767 5766 5764 5762 5759 5757 5754
5699 5703 5708 5712 5716 5720 5723 5727 5730 5733 5737 5741 5744 5748 5751 5754 5757 5760 5762 5764 5765 5766 5767 5768 5768 5769 5769 5769 5768 5768 5768 5767 5767 5766 5763 5762 5760 5758 5756 5753 5751 5748 5746
5691 5695 5699 5703 5708 5712 5715 5719 5722 5725 5729 5733 5736 5740 5743 5746 5749 5751 5753 5755 5756 5758 5759 5760 5760 5760 5760 5760 5760 5759 5759 5759 5758 5758 5756 5754 5752 5750 5747 5745 5742 5740 5737
5682 5686 5691 5695 5699 5704 5707 5711 5714 5717 5721 5725 5728 5732 5735 5738 5740 5743 5745 5747 5748 5750 5751 5751 5752 5752 5752 5752 5751 5751 5750 5750 5749 5749 5748 5747 5744 5742 5739 5736 5733 5730 5728
5673 5678 5683 5687 5691 5696 5699 5703 5706 5709 5713 5716 5720 5724 5727 5730 5732 5735 5737 5738 5740 5742 5742 5743 5743 5743 5743 5743 5743 5743 5742 5742 5741 5740 5739 5738 5737 5734 5731 5728 5725 5721 5718